Time,TemperatureF,DewpointF,PressureIn,WindDirection,WindDirectionDegrees,WindSpeedMPH,WindSpeedGustMPH,Humidity,HourlyPrecipIn,Conditions,Clouds,dailyrainin,SoftwareType,DateUTC
2013-02-05 00:00:00,44.1,43.0,29.44,ESE,120,0.0,0.0,96,0.00,,---,0.00,VWS V14.01,2013-02-05 08:00:00,
2013-02-05 00:05:00,44.4,43.3,29.44,West,268,0.0,0.0,96,0.00,,---,0.00,VWS V14.01,2013-02-05 08:05:00,
2013-02-05 00:10:00,44.6,43.5,29.44,East,97,0.0,0.0,96,0.00,,---,0.00,VWS V14.01,2013-02-05 08:10:00,
2013-02-05 00:15:00,44.4,43.3,29.44,NE,54,0.0,0.0,96,0.00,,---,0.00,VWS V14.01,2013-02-05 08:15:00,
2013-02-05 00:20:00,44.2,43.2,29.44,NE,54,0.0,0.0,96,0.00,,---,0.00,VWS V14.01,2013-02-05 08:20:00,
2013-02-05 00:25:00,44.6,43.5,29.44,NE,54,0.0,0.0,96,0.00,,---,0.00,VWS V14.01,2013-02-05 08:25:00,
2013-02-05 00:30:00,45.5,44.2,29.44,SW,230,3.6,3.6,95,0.00,,---,0.00,VWS V14.01,2013-02-05 08:30:00,
2013-02-05 00:35:00,45.5,44.2,29.44,SW,225,3.6,3.6,95,0.00,,---,0.00,VWS V14.01,2013-02-05 08:35:00,
2013-02-05 00:40:00,46.0,44.7,29.44,SW,225,3.6,3.6,95,0.00,,---,0.00,VWS V14.01,2013-02-05 08:40:00,
2013-02-05 00:45:00,46.2,44.6,29.44,WNW,290,7.6,7.6,94,0.00,,---,0.00,VWS V14.01,2013-02-05 08:45:00,
2013-02-05 00:50:00,46.2,44.6,29.44,South,185,3.6,3.6,94,0.00,,---,0.00,VWS V14.01,2013-02-05 08:50:00,
2013-02-05 00:55:00,46.2,44.3,29.44,SW,232,6.3,6.3,93,0.00,,---,0.00,VWS V14.01,2013-02-05 08:55:00,
2013-02-05 01:00:00,46.2,44.0,29.44,SW,232,6.3,6.3,92,0.00,,---,0.00,VWS V14.01,2013-02-05 09:00:00,
2013-02-05 01:05:00,46.0,43.8,29.44,SSW,212,5.8,6.3,92,0.00,,---,0.00,VWS V14.01,2013-02-05 09:05:00,
2013-02-05 01:10:00,46.0,43.8,29.44,East,91,2.7,2.7,92,0.00,,---,0.00,VWS V14.01,2013-02-05 09:10:00,
2013-02-05 01:15:00,46.2,43.7,29.44,East,91,2.7,2.7,91,0.00,,---,0.00,VWS V14.01,2013-02-05 09:15:00,
2013-02-05 01:20:00,46.2,43.7,29.44,SSW,204,6.3,6.3,91,0.00,,---,0.00,VWS V14.01,2013-02-05 09:20:00,
2013-02-05 01:25:00,46.2,43.5,29.44,West,275,3.6,3.6,90,0.00,,---,0.00,VWS V14.01,2013-02-05 09:25:00,
2013-02-05 01:30:00,46.2,43.5,29.44,West,275,3.6,3.6,90,0.00,,---,0.00,VWS V14.01,2013-02-05 09:30:00,
2013-02-05 01:35:00,46.2,43.2,29.44,SSW,201,5.4,5.4,89,0.00,,---,0.00,VWS V14.01,2013-02-05 09:35:00,
2013-02-05 01:40:00,46.2,43.2,29.44,SW,225,2.7,2.7,89,0.00,,---,0.00,VWS V14.01,2013-02-05 09:40:00,
2013-02-05 01:45:00,46.2,43.2,29.44,SW,225,2.7,2.7,89,0.00,,---,0.00,VWS V14.01,2013-02-05 09:45:00,
2013-02-05 01:50:00,46.4,43.0,29.44,SW,232,2.7,2.7,88,0.00,,---,0.00,VWS V14.01,2013-02-05 09:50:00,
2013-02-05 01:55:00,46.4,43.0,29.44,SSE,159,2.2,2.2,88,0.00,,---,0.00,VWS V14.01,2013-02-05 09:55:00,
2013-02-05 02:00:00,46.4,43.0,29.44,SSE,159,2.2,2.2,88,0.00,,---,0.00,VWS V14.01,2013-02-05 10:00:00,
2013-02-05 02:05:00,46.2,42.9,29.44,SW,222,2.2,2.2,88,0.00,,---,0.00,VWS V14.01,2013-02-05 10:05:00,
2013-02-05 02:10:00,46.2,42.9,29.44,SW,222,2.2,2.2,88,0.00,,---,0.00,VWS V14.01,2013-02-05 10:10:00,
2013-02-05 02:15:00,46.2,42.9,29.44,SSE,158,2.7,3.1,88,0.00,,---,0.00,VWS V14.01,2013-02-05 10:15:00,
2013-02-05 02:20:00,46.0,42.7,29.44,SSE,158,2.7,2.7,88,0.00,,---,0.00,VWS V14.01,2013-02-05 10:20:00,
2013-02-05 02:25:00,46.0,42.7,29.44,SE,132,0.0,0.0,88,0.00,,---,0.00,VWS V14.01,2013-02-05 10:25:00,
2013-02-05 02:29:00,46.0,43.0,29.44,South,177,0.0,0.0,89,0.00,,---,0.00,VWS V14.01,2013-02-05 10:29:00,
2013-02-05 02:35:00,46.0,43.0,29.44,South,177,0.0,0.0,89,0.00,,---,0.00,VWS V14.01,2013-02-05 10:35:00,
2013-02-05 02:40:00,46.0,43.0,29.44,South,177,0.0,0.0,89,0.00,,---,0.00,VWS V14.01,2013-02-05 10:40:00,
2013-02-05 02:45:00,46.0,43.0,29.44,SW,234,2.2,2.2,89,0.00,,---,0.00,VWS V14.01,2013-02-05 10:45:00,
2013-02-05 02:50:00,45.9,42.8,29.44,SW,234,2.2,2.2,89,0.00,,---,0.00,VWS V14.01,2013-02-05 10:50:00,
2013-02-05 02:54:00,45.9,42.8,29.44,WSW,246,2.7,2.7,89,0.00,,---,0.00,VWS V14.01,2013-02-05 10:54:00,
2013-02-05 02:59:00,46.0,43.0,29.44,SSE,149,3.6,3.6,89,0.00,,---,0.00,VWS V14.01,2013-02-05 10:59:00,
2013-02-05 03:04:00,46.2,42.9,29.41,SSE,149,3.6,3.6,88,0.00,,---,0.00,VWS V14.01,2013-02-05 11:04:00,
2013-02-05 03:09:00,46.2,42.9,29.41,WSW,245,0.0,0.0,88,0.00,,---,0.00,VWS V14.01,2013-02-05 11:09:00,
2013-02-05 03:14:00,46.0,42.7,29.41,WSW,245,0.0,0.0,88,0.00,,---,0.00,VWS V14.01,2013-02-05 11:14:00,
2013-02-05 03:19:00,46.0,42.4,29.41,SW,218,0.0,0.0,87,0.00,,---,0.00,VWS V14.01,2013-02-05 11:19:00,
2013-02-05 03:24:00,46.0,42.4,29.41,SSE,159,3.1,3.1,87,0.00,,---,0.00,VWS V14.01,2013-02-05 11:24:00,
2013-02-05 03:29:00,46.0,42.4,29.41,SE,146,0.0,6.3,87,0.00,,---,0.00,VWS V14.01,2013-02-05 11:29:00,
2013-02-05 03:34:00,46.0,42.4,29.38,SSE,155,2.2,2.2,87,0.00,,---,0.00,VWS V14.01,2013-02-05 11:34:00,
2013-02-05 03:39:00,46.0,42.4,29.38,SSE,155,2.2,2.2,87,0.00,,---,0.00,VWS V14.01,2013-02-05 11:39:00,
2013-02-05 03:44:00,46.2,42.6,29.38,SSE,155,2.2,2.2,87,0.00,,---,0.00,VWS V14.01,2013-02-05 11:44:00,
2013-02-05 03:49:00,46.2,42.6,29.41,SSW,209,6.3,6.3,87,0.00,,---,0.00,VWS V14.01,2013-02-05 11:49:00,
2013-02-05 03:54:00,46.2,42.3,29.41,SSW,209,6.3,6.3,86,0.00,,---,0.00,VWS V14.01,2013-02-05 11:54:00,
2013-02-05 03:59:00,46.2,42.3,29.41,SSW,209,6.3,6.3,86,0.00,,---,0.00,VWS V14.01,2013-02-05 11:59:00,
2013-02-05 04:04:00,46.0,42.1,29.41,ESE,116,0.0,0.0,86,0.00,,---,0.00,VWS V14.01,2013-02-05 12:04:00,
2013-02-05 04:09:00,46.0,42.1,29.41,ESE,116,0.0,0.0,86,0.00,,---,0.00,VWS V14.01,2013-02-05 12:09:00,
2013-02-05 04:14:00,45.9,41.9,29.41,ESE,116,0.0,0.0,86,0.00,,---,0.00,VWS V14.01,2013-02-05 12:14:00,
2013-02-05 04:19:00,45.9,41.9,29.41,ESE,116,0.0,0.0,86,0.00,,---,0.00,VWS V14.01,2013-02-05 12:19:00,
2013-02-05 04:24:00,45.7,42.0,29.41,ESE,116,0.0,0.0,87,0.00,,---,0.00,VWS V14.01,2013-02-05 12:24:00,
2013-02-05 04:29:00,45.5,41.9,29.41,ESE,116,0.0,0.0,87,0.00,,---,0.00,VWS V14.01,2013-02-05 12:29:00,
2013-02-05 04:34:00,45.7,42.0,29.41,SW,230,0.0,0.0,87,0.00,,---,0.00,VWS V14.01,2013-02-05 12:34:00,
2013-02-05 04:39:00,45.7,42.3,29.41,West,279,4.5,4.5,88,0.00,,---,0.00,VWS V14.01,2013-02-05 12:39:00,
2013-02-05 04:44:00,45.5,42.2,29.41,SSW,203,2.2,2.2,88,0.00,,---,0.00,VWS V14.01,2013-02-05 12:44:00,
2013-02-05 04:49:00,45.5,42.2,29.41,SSW,203,2.2,2.2,88,0.00,,---,0.00,VWS V14.01,2013-02-05 12:49:00,
2013-02-05 04:54:00,45.3,42.3,29.41,South,189,0.0,0.0,89,0.00,,---,0.00,VWS V14.01,2013-02-05 12:54:00,
2013-02-05 04:59:00,45.1,42.4,29.41,South,189,0.0,0.0,90,0.00,,---,0.00,VWS V14.01,2013-02-05 12:59:00,
2013-02-05 05:04:00,45.1,42.4,29.41,South,189,0.0,0.0,90,0.00,,---,0.00,VWS V14.01,2013-02-05 13:04:00,
2013-02-05 05:09:00,45.0,42.5,29.41,SSE,158,2.7,2.7,91,0.00,,---,0.00,VWS V14.01,2013-02-05 13:09:00,
2013-02-05 05:14:00,45.0,42.5,29.41,SSE,158,2.7,2.7,91,0.00,,---,0.00,VWS V14.01,2013-02-05 13:14:00,
2013-02-05 05:19:00,45.0,42.5,29.41,SSE,158,2.7,2.7,91,0.00,,---,0.00,VWS V14.01,2013-02-05 13:19:00,
2013-02-05 05:24:00,44.6,42.4,29.41,WSW,246,0.0,0.0,92,0.00,,---,0.00,VWS V14.01,2013-02-05 13:24:00,
2013-02-05 05:29:00,44.6,42.4,29.41,SSE,148,0.0,0.0,92,0.00,,---,0.00,VWS V14.01,2013-02-05 13:29:00,
2013-02-05 05:34:00,44.6,42.7,29.41,SSE,148,0.0,0.0,93,0.00,,---,0.00,VWS V14.01,2013-02-05 13:34:00,
2013-02-05 05:39:00,44.4,42.8,29.41,SSE,148,0.0,0.0,94,0.00,,---,0.00,VWS V14.01,2013-02-05 13:39:00,
2013-02-05 05:44:00,44.4,42.8,29.41,SSE,148,0.0,0.0,94,0.04,,---,0.04,VWS V14.01,2013-02-05 13:44:00,
2013-02-05 05:49:00,44.2,42.6,29.41,SSE,148,0.0,0.0,94,0.04,,---,0.04,VWS V14.01,2013-02-05 13:49:00,
2013-02-05 05:54:00,44.2,42.6,29.41,SSE,148,0.0,0.0,94,0.04,,---,0.04,VWS V14.01,2013-02-05 13:54:00,
2013-02-05 05:59:00,44.2,42.9,29.41,SSE,148,0.0,0.0,95,0.04,,---,0.04,VWS V14.01,2013-02-05 13:59:00,
2013-02-05 06:04:00,44.1,42.7,29.38,South,177,0.0,0.0,95,0.04,,---,0.04,VWS V14.01,2013-02-05 14:04:00,
2013-02-05 06:09:00,44.1,42.7,29.38,South,177,0.0,0.0,95,0.04,,---,0.04,VWS V14.01,2013-02-05 14:09:00,
2013-02-05 06:14:00,44.1,42.7,29.38,SE,133,0.0,0.0,95,0.04,,---,0.04,VWS V14.01,2013-02-05 14:14:00,
2013-02-05 06:19:00,44.1,42.7,29.38,SE,133,0.0,0.0,95,0.04,,---,0.04,VWS V14.01,2013-02-05 14:19:00,
2013-02-05 06:24:00,43.9,42.8,29.38,SE,133,0.0,0.0,96,0.04,,---,0.04,VWS V14.01,2013-02-05 14:24:00,
2013-02-05 06:29:00,43.9,42.8,29.38,SE,133,0.0,0.0,96,0.04,,---,0.04,VWS V14.01,2013-02-05 14:29:00,
2013-02-05 06:34:00,43.9,42.8,29.38,SE,133,0.0,0.0,96,0.04,,---,0.04,VWS V14.01,2013-02-05 14:34:00,
2013-02-05 06:39:00,43.9,42.8,29.38,SE,133,0.0,0.0,96,0.04,,---,0.04,VWS V14.01,2013-02-05 14:39:00,
2013-02-05 06:44:00,43.7,42.6,29.38,SE,133,0.0,0.0,96,0.00,,---,0.04,VWS V14.01,2013-02-05 14:44:00,
2013-02-05 06:49:00,43.7,42.6,29.38,SE,133,0.0,0.0,96,0.00,,---,0.04,VWS V14.01,2013-02-05 14:49:00,
2013-02-05 06:54:00,43.7,42.6,29.38,SE,133,0.0,0.0,96,0.00,,---,0.04,VWS V14.01,2013-02-05 14:54:00,
2013-02-05 06:59:00,43.7,42.6,29.38,SE,133,0.0,0.0,96,0.00,,---,0.04,VWS V14.01,2013-02-05 14:59:00,
2013-02-05 07:04:00,43.7,42.6,29.38,SE,133,0.0,0.0,96,0.00,,---,0.04,VWS V14.01,2013-02-05 15:04:00,
2013-02-05 07:09:00,43.7,42.6,29.38,SE,133,0.0,0.0,96,0.00,,---,0.04,VWS V14.01,2013-02-05 15:09:00,
2013-02-05 07:14:00,43.7,42.6,29.38,SE,133,0.0,0.0,96,0.00,,---,0.04,VWS V14.01,2013-02-05 15:14:00,
2013-02-05 07:19:00,43.5,42.7,29.38,SE,133,0.0,0.0,97,0.00,,---,0.04,VWS V14.01,2013-02-05 15:19:00,
2013-02-05 07:24:00,43.5,42.7,29.38,SE,133,0.0,0.0,97,0.00,,---,0.04,VWS V14.01,2013-02-05 15:24:00,
2013-02-05 07:29:00,43.7,42.9,29.38,SSE,152,0.0,0.0,97,0.00,,---,0.04,VWS V14.01,2013-02-05 15:29:00,
2013-02-05 07:34:00,43.7,42.9,29.38,ESE,116,0.0,0.0,97,0.00,,---,0.04,VWS V14.01,2013-02-05 15:34:00,
2013-02-05 07:39:00,43.5,42.7,29.38,ESE,116,0.0,0.0,97,0.00,,---,0.04,VWS V14.01,2013-02-05 15:39:00,
2013-02-05 07:44:00,43.5,42.7,29.38,ESE,116,0.0,0.0,97,0.00,,---,0.04,VWS V14.01,2013-02-05 15:44:00,
2013-02-05 07:49:00,43.5,42.7,29.38,ESE,116,0.0,0.0,97,0.00,,---,0.04,VWS V14.01,2013-02-05 15:49:00,
2013-02-05 07:54:00,43.5,42.7,29.38,ESE,116,0.0,0.0,97,0.00,,---,0.04,VWS V14.01,2013-02-05 15:54:00,
2013-02-05 07:59:00,43.5,42.7,29.38,ESE,116,0.0,0.0,97,0.00,,---,0.04,VWS V14.01,2013-02-05 15:59:00,
2013-02-05 08:04:00,43.5,42.7,29.38,ESE,116,0.0,0.0,97,0.00,,---,0.04,VWS V14.01,2013-02-05 16:04:00,
2013-02-05 08:09:00,43.5,42.7,29.38,ESE,116,0.0,0.0,97,0.00,,---,0.04,VWS V14.01,2013-02-05 16:09:00,
2013-02-05 08:14:00,43.5,42.7,29.38,ESE,116,0.0,0.0,97,0.00,,---,0.04,VWS V14.01,2013-02-05 16:14:00,
2013-02-05 08:19:00,43.5,42.7,29.38,ESE,116,0.0,0.0,97,0.00,,---,0.04,VWS V14.01,2013-02-05 16:19:00,
2013-02-05 08:24:00,43.5,42.7,29.38,West,281,0.0,0.0,97,0.00,,---,0.04,VWS V14.01,2013-02-05 16:24:00,
2013-02-05 08:29:00,43.5,42.7,29.38,West,281,0.0,0.0,97,0.00,,---,0.04,VWS V14.01,2013-02-05 16:29:00,
2013-02-05 08:34:00,43.5,42.7,29.38,South,187,0.0,0.0,97,0.00,,---,0.04,VWS V14.01,2013-02-05 16:34:00,
2013-02-05 08:39:00,43.7,42.9,29.38,South,187,0.0,0.0,97,0.00,,---,0.04,VWS V14.01,2013-02-05 16:39:00,
2013-02-05 08:44:00,43.7,42.9,29.38,NW,319,0.0,0.0,97,0.00,,---,0.04,VWS V14.01,2013-02-05 16:44:00,
2013-02-05 08:49:00,43.9,43.3,29.38,NW,319,0.0,0.0,98,0.00,,---,0.04,VWS V14.01,2013-02-05 16:49:00,
2013-02-05 08:54:00,43.9,43.3,29.38,NNW,331,0.0,0.0,98,0.00,,---,0.04,VWS V14.01,2013-02-05 16:54:00,
2013-02-05 08:59:00,44.1,43.5,29.38,NE,43,3.1,3.1,98,0.00,,---,0.04,VWS V14.01,2013-02-05 16:59:00,
2013-02-05 09:04:00,44.4,43.9,29.38,NE,43,3.1,3.1,98,0.00,,---,0.04,VWS V14.01,2013-02-05 17:04:00,
2013-02-05 09:09:00,44.2,43.7,29.38,ENE,60,3.1,3.1,98,0.00,,---,0.04,VWS V14.01,2013-02-05 17:09:00,
2013-02-05 09:14:00,44.2,43.7,29.38,ENE,60,3.1,3.1,98,0.00,,---,0.04,VWS V14.01,2013-02-05 17:14:00,
2013-02-05 09:19:00,45.1,44.3,29.38,SW,223,0.0,0.0,97,0.00,,---,0.04,VWS V14.01,2013-02-05 17:19:00,
2013-02-05 09:24:00,45.1,44.3,29.38,WNW,284,3.1,3.1,97,0.00,,---,0.04,VWS V14.01,2013-02-05 17:24:00,
2013-02-05 09:29:00,45.0,44.2,29.38,WNW,284,3.1,3.1,97,0.00,,---,0.04,VWS V14.01,2013-02-05 17:29:00,
2013-02-05 09:34:00,45.3,44.5,29.38,SW,231,3.6,3.6,97,0.00,,---,0.04,VWS V14.01,2013-02-05 17:34:00,
2013-02-05 09:39:00,45.5,44.7,29.38,West,259,2.7,2.7,97,0.00,,---,0.04,VWS V14.01,2013-02-05 17:39:00,
2013-02-05 09:44:00,45.5,44.7,29.38,West,259,2.7,2.7,97,0.00,,---,0.04,VWS V14.01,2013-02-05 17:44:00,
2013-02-05 09:49:00,45.5,44.7,29.38,West,260,3.1,3.1,97,0.00,,---,0.04,VWS V14.01,2013-02-05 17:49:00,
2013-02-05 09:54:00,46.2,44.9,29.38,SE,125,2.7,2.7,95,0.00,,---,0.04,VWS V14.01,2013-02-05 17:54:00,
2013-02-05 09:59:00,46.2,44.9,29.38,SE,125,2.7,2.7,95,0.00,,---,0.04,VWS V14.01,2013-02-05 17:59:00,
2013-02-05 10:04:00,46.2,44.9,29.41,WSW,258,0.0,0.0,95,0.00,,---,0.04,VWS V14.01,2013-02-05 18:04:00,
2013-02-05 10:09:00,46.8,45.1,29.41,WSW,258,0.0,0.0,94,0.00,,---,0.04,VWS V14.01,2013-02-05 18:09:00,
2013-02-05 10:14:00,46.8,44.8,29.41,South,182,5.4,5.4,93,0.00,,---,0.04,VWS V14.01,2013-02-05 18:14:00,
2013-02-05 10:19:00,46.9,44.7,29.41,South,182,5.4,5.4,92,0.00,,---,0.04,VWS V14.01,2013-02-05 18:19:00,
2013-02-05 10:24:00,46.9,44.7,29.41,SW,236,2.7,3.6,92,0.00,,---,0.04,VWS V14.01,2013-02-05 18:24:00,
2013-02-05 10:29:00,46.9,44.7,29.41,South,186,3.1,3.1,92,0.00,,---,0.04,VWS V14.01,2013-02-05 18:29:00,
2013-02-05 10:34:00,46.9,44.7,29.41,South,186,3.1,3.1,92,0.00,,---,0.04,VWS V14.01,2013-02-05 18:34:00,
2013-02-05 10:39:00,46.9,44.7,29.41,South,186,3.1,3.1,92,0.00,,---,0.04,VWS V14.01,2013-02-05 18:39:00,
2013-02-05 10:44:00,47.5,44.4,29.41,SE,138,3.6,3.6,89,0.00,,---,0.04,VWS V14.01,2013-02-05 18:44:00,
2013-02-05 10:49:00,47.8,44.2,29.41,SE,138,3.6,3.6,87,0.00,,---,0.04,VWS V14.01,2013-02-05 18:49:00,
2013-02-05 10:54:00,48.0,44.0,29.41,SSW,198,4.9,4.9,86,0.00,,---,0.04,VWS V14.01,2013-02-05 18:54:00,
2013-02-05 10:59:00,48.6,44.3,29.41,SW,232,0.0,0.0,85,0.00,,---,0.04,VWS V14.01,2013-02-05 18:59:00,
2013-02-05 11:04:00,48.7,44.1,29.41,SW,232,0.0,0.0,84,0.00,,---,0.04,VWS V14.01,2013-02-05 19:04:00,
2013-02-05 11:09:00,48.7,44.1,29.41,SW,231,3.6,3.6,84,0.00,,---,0.04,VWS V14.01,2013-02-05 19:09:00,
2013-02-05 11:14:00,48.9,44.0,29.41,SW,231,3.6,3.6,83,0.00,,---,0.04,VWS V14.01,2013-02-05 19:14:00,
2013-02-05 11:19:00,48.9,44.0,29.41,SSW,207,3.6,4.9,83,0.00,,---,0.04,VWS V14.01,2013-02-05 19:19:00,
2013-02-05 11:24:00,49.1,43.8,29.41,SSW,207,3.6,3.6,82,0.00,,---,0.04,VWS V14.01,2013-02-05 19:24:00,
2013-02-05 11:29:00,49.1,43.5,29.41,SE,146,5.8,5.8,81,0.00,,---,0.04,VWS V14.01,2013-02-05 19:29:00,
2013-02-05 11:34:00,49.1,43.5,29.41,WNW,300,6.3,6.3,81,0.00,,---,0.04,VWS V14.01,2013-02-05 19:34:00,
2013-02-05 11:39:00,49.1,43.5,29.41,WNW,300,6.3,6.3,81,0.00,,---,0.04,VWS V14.01,2013-02-05 19:39:00,
2013-02-05 11:44:00,49.1,43.5,29.41,WNW,300,6.3,6.3,81,0.00,,---,0.04,VWS V14.01,2013-02-05 19:44:00,
2013-02-05 11:49:00,49.1,43.5,29.38,South,169,0.0,0.0,81,0.00,,---,0.04,VWS V14.01,2013-02-05 19:49:00,
2013-02-05 11:54:00,49.1,43.5,29.38,South,189,2.7,2.7,81,0.00,,---,0.04,VWS V14.01,2013-02-05 19:54:00,
2013-02-05 11:59:00,48.7,42.5,29.38,SW,231,2.7,2.7,79,0.00,,---,0.04,VWS V14.01,2013-02-05 19:59:00,
2013-02-05 12:04:00,48.4,42.5,29.41,West,280,7.6,7.6,80,0.00,,---,0.04,VWS V14.01,2013-02-05 20:04:00,
2013-02-05 12:09:00,48.4,42.5,29.41,West,280,7.6,7.6,80,0.04,,---,0.08,VWS V14.01,2013-02-05 20:09:00,
2013-02-05 12:14:00,48.4,42.5,29.41,NW,315,2.7,2.7,80,0.04,,---,0.08,VWS V14.01,2013-02-05 20:14:00,
2013-02-05 12:19:00,48.4,42.5,29.41,NW,315,2.7,2.7,80,0.04,,---,0.08,VWS V14.01,2013-02-05 20:19:00,
2013-02-05 12:24:00,48.4,42.5,29.41,WSW,240,2.7,2.7,80,0.04,,---,0.08,VWS V14.01,2013-02-05 20:24:00,
2013-02-05 12:29:00,46.9,43.3,29.41,SSW,208,2.2,2.2,87,0.04,,---,0.08,VWS V14.01,2013-02-05 20:29:00,
2013-02-05 12:34:00,46.9,43.6,29.41,South,176,0.0,0.0,88,0.04,,---,0.08,VWS V14.01,2013-02-05 20:34:00,
2013-02-05 12:39:00,46.9,43.9,29.41,SSW,208,2.7,2.7,89,0.04,,---,0.08,VWS V14.01,2013-02-05 20:39:00,
2013-02-05 12:44:00,47.1,44.0,29.41,SSW,208,2.7,2.7,89,0.04,,---,0.08,VWS V14.01,2013-02-05 20:44:00,
2013-02-05 12:49:00,47.3,44.5,29.38,SSW,208,2.7,2.7,90,0.04,,---,0.08,VWS V14.01,2013-02-05 20:49:00,
2013-02-05 12:54:00,48.0,45.2,29.38,SSE,149,2.7,2.7,90,0.04,,---,0.08,VWS V14.01,2013-02-05 20:54:00,
2013-02-05 12:59:00,48.2,45.4,29.38,South,178,4.0,4.0,90,0.04,,---,0.08,VWS V14.01,2013-02-05 20:59:00,
2013-02-05 13:04:00,48.0,45.2,29.38,South,178,4.0,4.0,90,0.04,,---,0.08,VWS V14.01,2013-02-05 21:04:00,
2013-02-05 13:09:00,47.8,45.0,29.38,SE,125,2.2,2.2,90,0.00,,---,0.08,VWS V14.01,2013-02-05 21:09:00,
2013-02-05 13:14:00,48.7,45.7,29.38,SE,125,2.2,2.2,89,0.00,,---,0.08,VWS V14.01,2013-02-05 21:14:00,
2013-02-05 13:19:00,48.7,45.7,29.38,SSW,207,4.9,4.9,89,0.00,,---,0.08,VWS V14.01,2013-02-05 21:19:00,
2013-02-05 13:24:00,49.1,46.0,29.38,SSW,207,4.9,4.9,89,0.00,,---,0.08,VWS V14.01,2013-02-05 21:24:00,
2013-02-05 13:29:00,48.9,45.5,29.38,SSW,213,2.7,2.7,88,0.00,,---,0.08,VWS V14.01,2013-02-05 21:29:00,
2013-02-05 13:34:00,49.1,45.7,29.38,WSW,258,2.7,2.7,88,0.00,,---,0.08,VWS V14.01,2013-02-05 21:34:00,
2013-02-05 13:39:00,48.7,45.0,29.38,SSW,196,2.7,2.7,87,0.00,,---,0.08,VWS V14.01,2013-02-05 21:39:00,
2013-02-05 13:44:00,48.7,45.0,29.38,ESE,122,3.1,3.1,87,0.00,,---,0.08,VWS V14.01,2013-02-05 21:44:00,
2013-02-05 13:49:00,48.9,45.2,29.38,ESE,123,2.2,2.2,87,0.00,,---,0.08,VWS V14.01,2013-02-05 21:49:00,
2013-02-05 13:54:00,49.3,45.6,29.38,ESE,123,2.2,2.2,87,0.00,,---,0.08,VWS V14.01,2013-02-05 21:54:00,
2013-02-05 13:59:00,49.3,45.6,29.38,WSW,241,4.9,4.9,87,0.00,,---,0.08,VWS V14.01,2013-02-05 21:59:00,
2013-02-05 14:04:00,48.9,44.9,29.38,West,261,5.8,5.8,86,0.00,,---,0.08,VWS V14.01,2013-02-05 22:04:00,
2013-02-05 14:09:00,49.1,45.1,29.38,West,261,5.8,5.8,86,0.00,,---,0.08,VWS V14.01,2013-02-05 22:09:00,
2013-02-05 14:14:00,49.3,45.0,29.38,SW,235,0.0,0.0,85,0.00,,---,0.08,VWS V14.01,2013-02-05 22:14:00,
2013-02-05 14:19:00,49.3,45.0,29.38,NW,314,2.7,2.7,85,0.04,,---,0.12,VWS V14.01,2013-02-05 22:19:00,
2013-02-05 14:24:00,49.3,45.0,29.38,NW,314,2.7,2.7,85,0.04,,---,0.12,VWS V14.01,2013-02-05 22:24:00,
2013-02-05 14:29:00,49.1,44.5,29.38,South,185,3.1,3.1,84,0.04,,---,0.12,VWS V14.01,2013-02-05 22:29:00,
2013-02-05 14:34:00,48.9,44.0,29.38,ESE,111,2.7,3.1,83,0.04,,---,0.12,VWS V14.01,2013-02-05 22:34:00,
2013-02-05 14:39:00,49.1,44.5,29.38,SSE,155,3.6,3.6,84,0.04,,---,0.12,VWS V14.01,2013-02-05 22:39:00,
2013-02-05 14:44:00,49.1,44.5,29.38,SSE,155,3.6,3.6,84,0.04,,---,0.12,VWS V14.01,2013-02-05 22:44:00,
2013-02-05 14:49:00,48.9,44.6,29.38,ESE,102,2.7,2.7,85,0.04,,---,0.12,VWS V14.01,2013-02-05 22:49:00,
2013-02-05 14:54:00,48.9,44.6,29.38,ESE,112,0.0,0.0,85,0.04,,---,0.12,VWS V14.01,2013-02-05 22:54:00,
2013-02-05 14:59:00,48.7,44.4,29.38,ESE,112,0.0,0.0,85,0.04,,---,0.12,VWS V14.01,2013-02-05 22:59:00,
2013-02-05 15:04:00,48.6,44.6,29.38,ESE,112,0.0,0.0,86,0.04,,---,0.12,VWS V14.01,2013-02-05 23:04:00,
2013-02-05 15:09:00,48.6,44.6,29.38,East,83,0.0,0.0,86,0.04,,---,0.12,VWS V14.01,2013-02-05 23:09:00,
2013-02-05 15:14:00,48.6,44.9,29.38,East,83,0.0,0.0,87,0.04,,---,0.12,VWS V14.01,2013-02-05 23:14:00,
2013-02-05 15:19:00,48.6,44.9,29.38,ENE,78,0.0,0.0,87,0.00,,---,0.12,VWS V14.01,2013-02-05 23:19:00,
2013-02-05 15:24:00,48.4,45.0,29.38,ENE,78,0.0,0.0,88,0.00,,---,0.12,VWS V14.01,2013-02-05 23:24:00,
2013-02-05 15:29:00,47.8,44.8,29.38,ENE,78,0.0,0.0,89,0.00,,---,0.12,VWS V14.01,2013-02-05 23:29:00,
2013-02-05 15:34:00,47.7,44.6,29.38,SE,137,2.7,2.7,89,0.00,,---,0.12,VWS V14.01,2013-02-05 23:34:00,
2013-02-05 15:39:00,47.5,44.7,29.38,SE,137,2.7,2.7,90,0.00,,---,0.12,VWS V14.01,2013-02-05 23:39:00,
2013-02-05 15:44:00,47.3,44.5,29.38,SSW,198,0.0,0.0,90,0.00,,---,0.12,VWS V14.01,2013-02-05 23:44:00,
2013-02-05 15:49:00,47.1,44.6,29.38,South,171,0.0,0.0,91,0.00,,---,0.12,VWS V14.01,2013-02-05 23:49:00,
2013-02-05 15:54:00,47.1,44.6,29.38,WSW,240,2.2,2.2,91,0.00,,---,0.12,VWS V14.01,2013-02-05 23:54:00,
2013-02-05 15:59:00,46.9,44.5,29.38,SW,233,0.0,0.0,91,0.00,,---,0.12,VWS V14.01,2013-02-05 23:59:00,
2013-02-05 16:04:00,46.9,44.7,29.38,SW,233,0.0,0.0,92,0.00,,---,0.12,VWS V14.01,2013-02-06 00:04:00,
2013-02-05 16:09:00,46.9,44.7,29.38,SW,233,0.0,0.0,92,0.00,,---,0.12,VWS V14.01,2013-02-06 00:09:00,
2013-02-05 16:14:00,46.9,44.7,29.38,SSW,210,2.2,2.2,92,0.00,,---,0.12,VWS V14.01,2013-02-06 00:14:00,
2013-02-05 16:19:00,46.6,44.4,29.38,SSW,210,2.2,2.2,92,0.00,,---,0.12,VWS V14.01,2013-02-06 00:19:00,
2013-02-05 16:24:00,46.6,44.4,29.38,SW,218,0.0,0.0,92,0.00,,---,0.12,VWS V14.01,2013-02-06 00:24:00,
2013-02-05 16:29:00,46.6,44.4,29.38,WNW,285,0.0,0.0,92,0.00,,---,0.12,VWS V14.01,2013-02-06 00:29:00,
2013-02-05 16:34:00,46.4,44.2,29.38,WNW,285,0.0,0.0,92,0.00,,---,0.12,VWS V14.01,2013-02-06 00:34:00,
2013-02-05 16:39:00,46.4,44.2,29.38,SSE,155,0.0,0.0,92,0.00,,---,0.12,VWS V14.01,2013-02-06 00:39:00,
2013-02-05 16:44:00,46.2,44.3,29.38,SSE,155,0.0,0.0,93,0.00,,---,0.12,VWS V14.01,2013-02-06 00:44:00,
2013-02-05 16:49:00,46.2,44.3,29.38,SSE,154,0.0,0.0,93,0.00,,---,0.12,VWS V14.01,2013-02-06 00:49:00,
2013-02-05 16:54:00,45.9,44.0,29.38,SSE,154,0.0,0.0,93,0.00,,---,0.12,VWS V14.01,2013-02-06 00:54:00,
2013-02-05 16:59:00,45.9,44.2,29.38,SSE,155,0.0,0.0,94,0.00,,---,0.12,VWS V14.01,2013-02-06 00:59:00,
2013-02-05 17:04:00,45.7,44.1,29.38,SSE,155,0.0,0.0,94,0.00,,---,0.12,VWS V14.01,2013-02-06 01:04:00,
2013-02-05 17:09:00,45.7,44.1,29.38,SSE,155,0.0,0.0,94,0.00,,---,0.12,VWS V14.01,2013-02-06 01:09:00,
2013-02-05 17:14:00,45.7,44.1,29.38,SSE,155,0.0,0.0,94,0.04,,---,0.16,VWS V14.01,2013-02-06 01:14:00,
2013-02-05 17:19:00,45.7,44.1,29.38,SE,145,2.7,2.7,94,0.04,,---,0.16,VWS V14.01,2013-02-06 01:19:00,
2013-02-05 17:24:00,45.5,43.9,29.38,SE,145,2.7,2.7,94,0.04,,---,0.16,VWS V14.01,2013-02-06 01:24:00,
2013-02-05 17:29:00,45.5,43.9,29.38,SE,145,2.7,2.7,94,0.04,,---,0.16,VWS V14.01,2013-02-06 01:29:00,
2013-02-05 17:34:00,45.5,43.9,29.38,ESE,109,0.0,0.0,94,0.08,,---,0.20,VWS V14.01,2013-02-06 01:34:00,
2013-02-05 17:39:00,45.3,44.0,29.38,ESE,109,0.0,0.0,95,0.08,,---,0.20,VWS V14.01,2013-02-06 01:39:00,
2013-02-05 17:44:00,45.3,44.0,29.38,ESE,109,0.0,0.0,95,0.08,,---,0.20,VWS V14.01,2013-02-06 01:44:00,
2013-02-05 17:49:00,45.5,44.2,29.38,SW,221,0.0,0.0,95,0.08,,---,0.20,VWS V14.01,2013-02-06 01:49:00,
2013-02-05 17:54:00,45.3,44.0,29.38,SW,221,0.0,0.0,95,0.08,,---,0.20,VWS V14.01,2013-02-06 01:54:00,
2013-02-05 17:59:00,45.3,44.0,29.38,SW,221,0.0,0.0,95,0.08,,---,0.20,VWS V14.01,2013-02-06 01:59:00,
2013-02-05 18:04:00,45.3,44.0,29.41,SW,220,0.0,0.0,95,0.08,,---,0.20,VWS V14.01,2013-02-06 02:04:00,
2013-02-05 18:09:00,45.3,44.0,29.41,SW,221,0.0,0.0,95,0.12,,---,0.24,VWS V14.01,2013-02-06 02:09:00,
2013-02-05 18:14:00,45.3,44.0,29.41,ENE,72,2.2,2.2,95,0.08,,---,0.24,VWS V14.01,2013-02-06 02:14:00,
2013-02-05 18:19:00,45.1,43.8,29.41,ENE,72,2.2,2.2,95,0.08,,---,0.24,VWS V14.01,2013-02-06 02:19:00,
2013-02-05 18:24:00,45.1,43.8,29.41,ENE,72,2.2,2.2,95,0.08,,---,0.24,VWS V14.01,2013-02-06 02:24:00,
2013-02-05 18:29:00,45.1,43.8,29.41,SW,225,2.7,2.7,95,0.08,,---,0.24,VWS V14.01,2013-02-06 02:29:00,
2013-02-05 18:34:00,45.1,43.8,29.41,SW,225,2.7,2.7,95,0.04,,---,0.24,VWS V14.01,2013-02-06 02:34:00,
2013-02-05 18:39:00,45.1,43.8,29.41,WSW,237,2.2,2.2,95,0.04,,---,0.24,VWS V14.01,2013-02-06 02:39:00,
2013-02-05 18:44:00,45.1,43.8,29.41,WSW,237,2.2,2.2,95,0.04,,---,0.24,VWS V14.01,2013-02-06 02:44:00,
2013-02-05 18:49:00,45.0,43.6,29.44,WSW,237,2.2,2.2,95,0.04,,---,0.24,VWS V14.01,2013-02-06 02:49:00,
2013-02-05 18:54:00,45.0,43.6,29.44,ESE,114,2.7,2.7,95,0.04,,---,0.24,VWS V14.01,2013-02-06 02:54:00,
2013-02-05 18:59:00,45.0,43.6,29.44,South,172,3.1,3.1,95,0.04,,---,0.24,VWS V14.01,2013-02-06 02:59:00,
2013-02-05 19:04:00,45.0,43.6,29.41,SSE,151,2.2,2.2,95,0.04,,---,0.24,VWS V14.01,2013-02-06 03:04:00,
2013-02-05 19:09:00,45.0,43.6,29.41,SE,137,4.0,4.0,95,0.00,,---,0.24,VWS V14.01,2013-02-06 03:09:00,
2013-02-05 19:14:00,44.8,43.4,29.41,WSW,243,0.0,0.0,95,0.00,,---,0.24,VWS V14.01,2013-02-06 03:14:00,
2013-02-05 19:19:00,44.8,43.4,29.44,SSE,149,0.0,0.0,95,0.00,,---,0.24,VWS V14.01,2013-02-06 03:19:00,
2013-02-05 19:24:00,44.8,43.4,29.44,SSW,213,4.0,4.0,95,0.00,,---,0.24,VWS V14.01,2013-02-06 03:24:00,
2013-02-05 19:29:00,44.8,43.4,29.44,SSW,213,4.0,4.0,95,0.00,,---,0.24,VWS V14.01,2013-02-06 03:29:00,
2013-02-05 19:34:00,44.6,43.3,29.44,SW,232,2.2,2.2,95,0.00,,---,0.24,VWS V14.01,2013-02-06 03:34:00,
2013-02-05 19:39:00,44.6,43.3,29.44,SW,232,2.2,2.2,95,0.00,,---,0.24,VWS V14.01,2013-02-06 03:39:00,
2013-02-05 19:44:00,44.4,43.1,29.44,SSE,153,3.1,3.1,95,0.00,,---,0.24,VWS V14.01,2013-02-06 03:44:00,
2013-02-05 19:49:00,44.4,43.1,29.44,SW,219,0.0,0.0,95,0.00,,---,0.24,VWS V14.01,2013-02-06 03:49:00,
2013-02-05 19:54:00,44.2,42.9,29.44,SW,219,0.0,0.0,95,0.00,,---,0.24,VWS V14.01,2013-02-06 03:54:00,
2013-02-05 19:59:00,44.2,42.9,29.44,SW,217,0.0,0.0,95,0.00,,---,0.24,VWS V14.01,2013-02-06 03:59:00,
2013-02-05 20:04:00,44.2,42.9,29.47,South,170,4.9,4.9,95,0.00,,---,0.24,VWS V14.01,2013-02-06 04:04:00,
2013-02-05 20:09:00,44.1,42.7,29.47,WSW,251,4.0,4.0,95,0.00,,---,0.24,VWS V14.01,2013-02-06 04:09:00,
2013-02-05 20:14:00,44.1,42.7,29.47,ENE,61,0.0,0.0,95,0.00,,---,0.24,VWS V14.01,2013-02-06 04:14:00,
2013-02-05 20:19:00,43.9,42.5,29.47,WSW,246,0.0,0.0,95,0.00,,---,0.24,VWS V14.01,2013-02-06 04:19:00,
2013-02-05 20:24:00,43.9,42.5,29.47,WSW,246,0.0,0.0,95,0.00,,---,0.24,VWS V14.01,2013-02-06 04:24:00,
2013-02-05 20:29:00,43.7,42.4,29.47,ESE,120,4.0,4.0,95,0.00,,---,0.24,VWS V14.01,2013-02-06 04:29:00,
2013-02-05 20:34:00,43.7,42.4,29.47,SSW,205,0.0,0.0,95,0.00,,---,0.24,VWS V14.01,2013-02-06 04:34:00,
2013-02-05 20:39:00,43.5,42.2,29.47,South,184,0.0,0.0,95,0.00,,---,0.24,VWS V14.01,2013-02-06 04:39:00,
2013-02-05 20:44:00,43.5,42.2,29.47,West,279,4.9,4.9,95,0.00,,---,0.24,VWS V14.01,2013-02-06 04:44:00,
2013-02-05 20:49:00,43.5,42.2,29.47,West,279,4.9,4.9,95,0.00,,---,0.24,VWS V14.01,2013-02-06 04:49:00,
2013-02-05 20:54:00,43.5,42.2,29.47,South,184,3.1,3.1,95,0.00,,---,0.24,VWS V14.01,2013-02-06 04:54:00,
2013-02-05 20:59:00,43.3,42.0,29.47,WSW,250,0.0,0.0,95,0.00,,---,0.24,VWS V14.01,2013-02-06 04:59:00,
2013-02-05 21:00:00,43.3,42.0,29.47,WSW,250,0.0,0.0,95,0.00,,---,0.24,VWS V14.01,2013-02-06 05:00:00,
2013-02-05 21:05:00,43.3,42.0,29.47,SSW,200,3.6,3.6,95,0.00,,---,0.24,VWS V14.01,2013-02-06 05:05:00,
2013-02-05 21:10:00,43.3,42.0,29.47,SW,230,2.2,3.6,95,0.00,,---,0.24,VWS V14.01,2013-02-06 05:10:00,
2013-02-05 21:15:00,43.3,42.0,29.47,SW,230,2.2,2.2,95,0.00,,---,0.24,VWS V14.01,2013-02-06 05:15:00,
2013-02-05 21:20:00,43.3,42.0,29.47,ENE,77,4.9,4.9,95,0.00,,---,0.24,VWS V14.01,2013-02-06 05:20:00,
2013-02-05 21:25:00,43.5,42.2,29.47,SSE,163,0.0,0.0,95,0.00,,---,0.24,VWS V14.01,2013-02-06 05:25:00,
2013-02-05 21:30:00,43.5,42.2,29.47,SSE,166,2.2,2.2,95,0.00,,---,0.24,VWS V14.01,2013-02-06 05:30:00,
2013-02-05 21:35:00,43.5,42.2,29.47,South,189,3.1,3.1,95,0.00,,---,0.24,VWS V14.01,2013-02-06 05:35:00,
2013-02-05 21:40:00,43.5,42.2,29.47,NNE,30,4.0,4.0,95,0.00,,---,0.24,VWS V14.01,2013-02-06 05:40:00,
2013-02-05 21:45:00,43.5,41.9,29.47,WSW,253,8.7,8.7,94,0.00,,---,0.24,VWS V14.01,2013-02-06 05:45:00,
2013-02-05 21:50:00,43.5,41.9,29.50,SE,131,6.3,6.3,94,0.00,,---,0.24,VWS V14.01,2013-02-06 05:50:00,
2013-02-05 21:55:00,43.5,41.9,29.50,SE,131,6.3,6.3,94,0.00,,---,0.24,VWS V14.01,2013-02-06 05:55:00,
2013-02-05 22:00:00,43.5,41.9,29.50,South,190,6.3,6.3,94,0.00,,---,0.24,VWS V14.01,2013-02-06 06:00:00,
2013-02-05 22:05:00,43.3,41.7,29.47,SSE,165,4.0,4.0,94,0.00,,---,0.24,VWS V14.01,2013-02-06 06:05:00,
2013-02-05 22:10:00,43.3,41.7,29.47,SSE,165,4.0,4.0,94,0.00,,---,0.24,VWS V14.01,2013-02-06 06:10:00,
2013-02-05 22:15:00,43.3,41.7,29.47,WNW,283,0.0,0.0,94,0.00,,---,0.24,VWS V14.01,2013-02-06 06:15:00,
2013-02-05 22:20:00,43.3,41.7,29.47,WNW,283,0.0,0.0,94,0.00,,---,0.24,VWS V14.01,2013-02-06 06:20:00,
2013-02-05 22:25:00,43.3,41.7,29.47,South,174,4.5,4.5,94,0.00,,---,0.24,VWS V14.01,2013-02-06 06:25:00,
2013-02-05 22:30:00,43.3,41.7,29.47,South,174,4.5,4.5,94,0.00,,---,0.24,VWS V14.01,2013-02-06 06:30:00,
2013-02-05 22:35:00,43.3,41.7,29.47,South,190,4.0,4.0,94,0.00,,---,0.24,VWS V14.01,2013-02-06 06:35:00,
2013-02-05 22:40:00,43.5,41.9,29.47,SSE,147,3.1,3.1,94,0.00,,---,0.24,VWS V14.01,2013-02-06 06:40:00,
2013-02-05 22:45:00,43.5,41.9,29.47,SW,225,6.3,6.3,94,0.00,,---,0.24,VWS V14.01,2013-02-06 06:45:00,
2013-02-05 22:50:00,43.5,41.9,29.50,SSW,194,2.2,2.2,94,0.00,,---,0.24,VWS V14.01,2013-02-06 06:50:00,
2013-02-05 22:55:00,43.5,41.9,29.50,SW,217,5.4,5.4,94,0.00,,---,0.24,VWS V14.01,2013-02-06 06:55:00,
2013-02-05 23:00:00,43.5,41.6,29.50,NE,35,0.0,0.0,93,0.00,,---,0.08,VWS V14.01,2013-02-06 07:00:00,
2013-02-05 23:05:00,43.5,41.6,29.50,WSW,241,4.0,4.0,93,0.00,,---,0.24,VWS V14.01,2013-02-06 07:05:00,
2013-02-05 23:10:00,43.7,41.8,29.50,SW,216,4.9,4.9,93,0.00,,---,0.24,VWS V14.01,2013-02-06 07:10:00,
2013-02-05 23:15:00,43.7,41.8,29.50,SW,216,4.9,4.9,93,0.00,,---,0.24,VWS V14.01,2013-02-06 07:15:00,
2013-02-05 23:20:00,43.7,41.8,29.50,West,268,2.2,2.2,93,0.00,,---,0.24,VWS V14.01,2013-02-06 07:20:00,
2013-02-05 23:25:00,43.7,41.8,29.50,West,268,2.2,2.2,93,0.00,,---,0.24,VWS V14.01,2013-02-06 07:25:00,
2013-02-05 23:30:00,43.7,41.8,29.50,WSW,248,4.5,4.5,93,0.00,,---,0.24,VWS V14.01,2013-02-06 07:30:00,
2013-02-05 23:35:00,43.9,41.7,29.50,SW,236,5.8,5.8,92,0.00,,---,0.24,VWS V14.01,2013-02-06 07:35:00,
2013-02-05 23:40:00,43.9,41.7,29.50,NNE,29,2.7,2.7,92,0.00,,---,0.24,VWS V14.01,2013-02-06 07:40:00,
2013-02-05 23:45:00,43.9,41.7,29.50,SSW,212,7.6,7.6,92,0.00,,---,0.24,VWS V14.01,2013-02-06 07:45:00,
2013-02-05 23:50:00,44.1,41.9,29.50,SSW,212,7.6,7.6,92,0.00,,---,0.24,VWS V14.01,2013-02-06 07:50:00,
2013-02-05 23:55:00,44.1,41.6,29.50,SW,235,4.9,4.9,91,0.00,,---,0.24,VWS V14.01,2013-02-06 07:55:00,